Regional Weather Roundup
Issued by NWS Portland, ME

Home | Current Version | Previous Version | Text Only | Print | Product List | Glossary On
Versions: 1 2 3 4 5 6 7 8 9 10 11 12 13 14 15 16 17 18 19 20 21 22 23 24 25 26 27 28 29 30 31 32 33 34 35 36 37 38 39 40 41 42 43 44 45 46 47 48 49 50
000
ASUS41 KGYX 221510
RWRGYX
WEATHER ROUNDUP FOR MAINE AND NEW HAMPSHIRE
NATIONAL WEATHER SERVICE GRAY ME
1000 AM EST MON DEC 22 2014

MEZ002-005-006-010-012-015-018-020-021-024-026-027-029-221600-
MAINE

CITY           SKY/WX    TMP DP  RH WIND       PRES   REMARKS
PORTLAND       PTSUNNY   35  27  72 N5        30.43S
SANFORD        CLOUDY    34  21  60 N8        30.41S
BAR HARBOR     CLOUDY    32  32 100 N3        30.45R
WISCASSET      CLOUDY    33  27  78 CALM      30.45S
ROCKLAND       CLOUDY    34  30  86 NE6       30.43S
FRYEBURG       CLOUDY    29  23  78 CALM      30.42S
LEWISTONAUBURN CLOUDY    28  25  86 N6        30.42S
AUGUSTA        CLOUDY    28  25  88 N3        30.43S
WATERVILLE     CLOUDY    28  23  80 N5        30.41R
BANGOR         PTSUNNY   29  26  89 NW3       30.45R
GREENVILLE       N/A     24  23  96 CALM      30.34S
MILLINOCKET    CLOUDY    28  25  88 CALM      30.45R
HOULTON        CLOUDY    26  22  84 VRB3      30.43S
PRESQUE ISLE   CLOUDY    25  14  63 SE5       30.42F
FRENCHVILLE    CLOUDY    20  18  92 S5        30.39R
CARIBOU        CLOUDY    24  21  88 S3        30.42R
$$

NHZ002-005-008-009-011-012-014-221600-
NEW HAMPSHIRE

CITY           SKY/WX    TMP DP  RH WIND       PRES   REMARKS
PORTSMOUTH     CLOUDY    35  26  71 NE6       30.40R
ROCHESTER      CLOUDY    33  26  75 VRB5      30.40R
NASHUA         CLOUDY    35  27  73 CALM      30.41R
MANCHESTER     CLOUDY    34  26  72 N5        30.39R
CONCORD        CLOUDY    32  28  85 CALM      30.40R
PLYMOUTH       CLOUDY    31  30  98 CALM      30.40R
BERLIN         CLOUDY    25  20  81 CALM      30.36S
WHITEFIELD     CLOUDY    27  23  85 CALM      30.35F
JAFFREY        CLOUDY    31  27  85 VRB3      30.36R
KEENE          CLOUDY    34  30  86 CALM      30.38R
LEBANON        CLOUDY    30  25  81 CALM      30.38R
MT WASHINGTON  PTSUNNY   18   3  53 W16         N/A  WCI   3
$$

VTZ005-007-008-221600-
VERMONT

CITY           SKY/WX    TMP DP  RH WIND       PRES   REMARKS
ST JOHNSBURY     N/A     28  23  81 MISG      30.37R
MONTPELIER     CLOUDY    25  22  88 CALM      30.39R
BURLINGTON     CLOUDY    24  19  81 NW5       30.39R FOG
$$

MAZ007-012-024-CTZ003-RIZ002-NYZ038-NYZ072-221600-
SOUTHERN NEW ENGLAND AND NY

CITY           SKY/WX    TMP DP  RH WIND       PRES   REMARKS
BOSTON         PTSUNNY   38  32  79 N9        30.40S
WORCESTER      CLOUDY    31  28  89 NE6       30.35S
NANTUCKET      MOSUNNY   47  40  76 E13       30.35R
PROVIDENCE     PTSUNNY   39  32  76 N9        30.38R
HARTFORD       PTSUNNY   37  31  78 N5        30.36R
ALBANY         FLURRIES  31  24  75 N5        30.37R
NEW YORK CITY  CLOUDY    40  35  83 NE13      30.32F
$$

ANZ081-ANZ082-ANZ150-NHZ014-MEZ023>029-221600-
COASTAL MARINE OBSERVATIONS

STATION/POSITION TIME  TEMP    WIND        PRES    WAVE
                       AIR SEA DIR/SP/G            HT/PER
                 (UTC) (F)     (DEG/KT/KT) (MB)    (FT/S)
MOUNT DESERT ROC 1500   39                 1029.7R
MATINICUS ROCK   1500           90/ 12/ 15 1029.7R
PORTLAND WX BUOY 1450   35 42   40/ 12/ 14 1029.7F   3/ 7
WELLS            1400   33 38   20/  7/ 11 1029.1R
ISLE OF SHOALS   1500   38      40/ 16/ 17 1028.6S
JEFFREYS LEDGE   1421      49                N/A     4/ 7
CASHES LEDGE BUO 1450   42 48   90/ 10/ 12 1028.9S   3/ 6
$$

.............KEY..............
   WCI - WIND CHILL
   TC  - TEMPERATURE IN CELSIUS
   VSB - VISIBILITY IN MILES
   HX  - HEAT INDEX
   FAIR- INDICATES FEW OR NO CLOUDS BELOW 12,000 FT, WITH NO
         SIGNIFICANT WEATHER AND/OR OBSTRUCTIONS TO VISIBILITY.





USA.gov is the U.S. government's official web portal to all federal, state and local government web resources and services.